Location: Ahstedt
(52.2048°N, 10.1060°E)
Time: 21:59:38
(UTC+00:00)

Cosmos 2074 Rocket - Pass Details

Date: 18 January 2026
Orbit: 966 x 986 km, 82.9° (Epoch: 7 February)

Event Time Altitude Azimuth Distance (km) Brightness Sun altitude
Rises 05:15:04 0° 204° (SSW) 3,684 6.9 -18.3°
Reaches altitude 10° 05:17:39 10° 209° (SSW) 2,739 6.2 -17.9°
Maximum altitude 05:23:48 55° 286° (WNW) 1,176 4.1 -17.0°
Drops below altitude 10° 05:29:59 10° 4° (N) 2,749 6.3 -16.1°
Sets 05:32:35 0° 9° (N) 3,699 7.0 -15.7°
